Regional Weather Roundup
Issued by NWS

Home | Current Version | Previous Version | Text Only | Print | Product List | Glossary Off
Versions: 1 2 3 4 5 6 7 8 9 10 11 12 13 14 15 16 17 18 19 20 21 22 23 24 25 26 27 28 29 30 31 32 33 34 35 36 37 38 39 40 41 42 43 44 45 46 47 48 49 50

000
ASUS43 KTOP 252208
RWRKS

WEATHER ROUNDUP FOR KANSAS
NATIONAL WEATHER SERVICE GOODLAND KS
400 PM CST TUE NOV 25 2014

NOTE:  "FAIR" INDICATES FEW OR NO CLOUDS BELOW 12,000 FEET WITH NO
SIGNIFICANT WEATHER AND/OR OBSTRUCTIONS TO VISIBILITY.

KSZ001>006-013>018-027>032-041>047-252300-
NORTHWEST KANSAS

CITY           SKY/WX    TMP DP  RH WIND       PRES   REMARKS
GOODLAND       PTSUNNY   49   9  19 SW13      29.87F
HAYS           CLOUDY    50  16  25 SW18      29.94F
HILL CITY      CLOUDY    51  14  22 SW17G24   29.90F
RUSSELL        CLOUDY    49  18  29 S14G21    29.94F
$$

KSZ061>065-074>080-084>089-252300-
SOUTHWEST KANSAS

CITY           SKY/WX    TMP DP  RH WIND       PRES   REMARKS
DODGE CITY     CLOUDY    51  12  21 SW16      29.96F
ELKHART          N/A     52  15  23 SW10        N/A
GARDEN CITY    PTSUNNY   52  10  18 SW17      29.92F
GREAT BEND     CLOUDY    48  19  32 S16       29.99S
LIBERAL        PTSUNNY   52  18  25 SW16      29.96F
PRATT          CLOUDY    48  18  29 SW13      30.02F
$$

KSZ066>073-081>083-090>101-252300-
SOUTHEAST KANSAS

CITY           SKY/WX    TMP DP  RH WIND       PRES   REMARKS
CHANUTE        SUNNY     46  20  35 S8        30.12F
COFFEYVILLE    SUNNY     48  20  32 S9        30.14F
HUTCHINSON     CLOUDY    50  25  37 SW16      30.03F
MEDICINE LODGE   N/A     51  21  30 S12       30.02F
NEWTON         MOSUNNY   46  21  36 S14       30.06F
PARSONS        SUNNY     47  20  34 VRB6      30.14F
WICHITA INTL   PTSUNNY   49  23  36 S13       30.06F
WICHITA JABRA  SUNNY     47  22  37 S13       30.06F
WICHITA MCCONL MOSUNNY   48  21  34 S12       30.06F
WINFIELD       SUNNY     48  27  44 SW9       30.10F
$$

KSZ007>012-019>026-033>040-048>060-102>105-252300-
NORTHEAST KANSAS

CITY           SKY/WX    TMP DP  RH WIND       PRES   REMARKS
CONCORDIA      CLOUDY    48  21  34 SW10      29.95F
EMPORIA        SUNNY     47  22  37 S13       30.07F
LAWRENCE       PTCLDY    43  20  39 S7        30.09F
MANHATTAN      SUNNY     49  24  37 SW12      30.02F
MARYSVILLE     MOCLDY    46  27  46 S12       29.98F
OLATHE IND     CLEAR     42  18  37 S10       30.10F
OLATHE EXE     CLEAR     42  17  36 S9        30.10F
SALINA         PTSUNNY   50  22  33 S13       30.01F
TOPEKA BILLARD PTCLDY    46  23  40 S7        30.08F
TOPEKA FORBES  CLEAR     46  23  40 S10       30.07F
$$


USA.gov is the U.S. government's official web portal to all federal, state and local government web resources and services.